Location: Bron Breck
(40.6655°N, 111.8083°W)
Time: 22:53:15
(UTC+00:00)

N. Korean satellite - Pass Details

Date: 09 March 2021
Orbit: 453 x 499 km, 97.2° (Epoch: 12 April)

Event Time Altitude Azimuth Distance (km) Brightness Sun altitude
Rises 12:09:26 0° 26° (NNE) 2,549 10.8 -19.5°
Reaches altitude 10° 12:11:48 10° 40° (NE) 1,673 10.0 -19.0°
Maximum altitude 12:14:44 23° 95° (E) 1,065 9.1 -18.5°
Drops below altitude 10° 12:17:42 10° 150° (SSE) 1,680 9.5 -17.9°
Sets 12:20:04 0° 165° (SSE) 2,563 10.3 -17.5°
